Regional Weather Roundup
Issued by NWS Green Bay, WI

Home | Current Version | Previous Version | Graphics & Text | Print | Product List | Glossary Off
Versions: 1 2 3 4 5 6 7 8 9 10 11 12 13 14 15 16 17 18 19 20 21 22 23 24 25 26 27 28 29 30 31 32 33 34 35 36 37 38 39 40 41 42 43 44 45 46 47 48 49 50

000
ASUS43 KGRB 231259
RWRGRB

NORTH-CENTRAL AND NORTHEAST WISCONSIN REGIONAL WEATHER ROUNDUP
NATIONAL WEATHER SERVICE GREEN BAY WI
800 AM CDT WED APR 23 2014

WIZ005-009-010>012-018-019-231400-
NORTH CENTRAL WISCONSIN

CITY           SKY/WX    TMP DP  RH WIND       PRES   REMARKS
IRONWOOD       MOSUNNY   34  25  69 CALM      30.13S
MANITOWISH WTR NOT AVBL
ARBOR VITAE    NOT AVBL
EAGLE RIVER    NOT AVBL
LAND O LAKES   NOT AVBL
RHINELANDER    PTSUNNY   32  27  81 CALM      30.17R
PHILLIPS       NOT AVBL
ANTIGO         NOT AVBL
TOMAHAWK       NOT AVBL
MERRILL        NOT AVBL
$$

WIZ013-073-231400-
NORTHEAST WISCONSIN

CITY           SKY/WX    TMP DP  RH WIND       PRES   REMARKS
IRON MOUNTAIN  SUNNY     33  26  75 NW3       30.16S
MARINETTE      SUNNY     36  27  69 N7        30.19R
$$

WIZ017-030-035>037-045-231400-
CENTRAL WISCONSIN

CITY           SKY/WX    TMP DP  RH WIND       PRES   REMARKS
MEDFORD        NOT AVBL
WAUSAU         MOSUNNY   34  29  82 E3        30.15R
MOSINEE        SUNNY     36  30  80 E7        30.16S
MARSHFIELD     PTSUNNY   36  28  73 SE7       30.15R
WISC RAPIDS    PTSUNNY   37  27  67 E5        30.18R
STEVENS POINT  NOT AVBL
WAUPACA        NOT AVBL
SHAWANO        NOT AVBL
CLINTONVILLE   NOT AVBL
$$

WIZ038-039-048-051-231400-
FOX VALLEY

CITY           SKY/WX    TMP DP  RH WIND       PRES   REMARKS
NWS GREEN BAY  MOSUNNY   37  28  70 NW5       30.20R
APPLETON       MOSUNNY   34  27  75 NE6       30.19R
OSHKOSH        MOSUNNY   38  27  64 E8        30.17R
FOND DU LAC    SUNNY     38  27  64 NE6       30.17R
$$

WIZ022-050-052-231400-
EAST CENTRAL WISCONSIN

CITY           SKY/WX    TMP DP  RH WIND       PRES   REMARKS
STURGEON BAY   SUNNY     34  27  75 N12       30.19R
MANITOWOC      NOT AVBL
SHEBOYGAN      MOSUNNY   37  28  70 N6        30.18R
$$

LMZ563-521-522-541>543-231400-
LAKESHORE

STATION/POSITION TIME  TEMP    WIND        PRES    VSBY  WAVE
                       AIR SEA DIR/SP/G                  HT/PER
                 (UTC) (F)     (DEG/KT/KT) (MB)    (MI)  (FT/S)
SHEBOYGAN LKSHOR 1200   36     320/  7/  8 1022.6R
KEWAUNEE LKSHORE 1200   36     350/  4/  8 1022.1S
TWO RIVERS CG    1200   36                   N/A       6   1
NORTHPORT PIER   1200   32     300/  7/  9 1022.4R
SISTER BAY LKSHO 1200   36        CALM       N/A
STURGEON BAY CG  1200   33     310/  8     1020.9      6   1
MENOMINEE LKSHOR 1200   33     320/  7/  8 1022.8R
$$



USA.gov is the U.S. government's official web portal to all federal, state and local government web resources and services.